Theta_e
290 292 294 292 292 291 290 289 285 288 288 292 292 293 293 295 296 301 302 304 303 303 304 305 306 306 305 302 300 301 299 298 297 298 297 297 295 294 293 293 292 292 292 293
287 291 291 290 292 292 291 291 290 289 288 292 293 293 294 295 296 296 297 300 301 302 303 303 304 304 303 301 300 300 298 297 298 297 298 296 294 293 293 293 293 292 293 292
283 286 287 282 288 291 291 292 292 287 291 293 293 294 294 295 296 296 297 298 298 300 303 302 302 303 302 300 300 298 297 297 298 298 295 293 293 293 293 293 294 294 292 291
280 282 275 289 294 293 291 290 291 291 293 294 294 294 295 295 296 296 297 296 295 294 296 299 302 301 301 298 296 294 295 294 295 294 292 292 293 292 292 292 291 290 290 289
281 280 285 290 291 291 289 288 292 292 294 295 296 295 295 299 297 295 293 292 292 292 292 293 297 296 294 292 292 292 292 292 293 293 292 293 292 292 292 292 291 289 288 288
280 280 277 288 292 295 294 284 293 293 294 294 292 284 291 296 293 291 291 291 290 291 291 291 291 292 291 291 291 290 291 292 293 294 293 293 292 292 292 291 289 288 287 286
277 277 282 290 295 294 283 285 295 295 295 293 292 292 292 291 290 290 290 290 291 290 290 290 292 292 290 290 290 292 294 294 294 295 294 293 293 292 291 288 286 284 283 283
278 276 279 294 293 287 290 293 296 295 295 295 294 292 290 290 290 290 289 290 290 289 289 290 291 291 290 290 292 294 294 294 295 294 294 293 291 289 287 285 283 283 281 282
287 285 293 295 293 295 296 296 295 296 297 296 291 289 289 289 289 289 289 289 289 289 289 289 290 290 289 290 292 292 292 293 292 292 290 289 286 285 284 283 281 281 281 280
289 292 294 294 297 298 297 297 298 299 299 293 289 289 289 289 289 288 287 286 287 288 287 287 288 289 289 289 290 288 287 286 286 285 285 285 285 285 283 281 280 281 281 281
289 294 296 296 296 294 294 294 293 292 291 290 290 289 289 288 287 287 287 287 287 287 286 286 287 286 286 286 286 285 285 284 284 282 283 283 283 283 283 283 283 283 282 282
286 296 294 295 295 295 293 292 292 291 290 290 290 288 288 287 288 287 286 286 286 285 285 285 285 284 285 286 285 284 283 283 281 281 281 282 282 283 286 286 286 286 286 285
295 296 295 293 293 293 292 291 291 290 290 288 289 289 288 287 286 287 285 285 284 284 284 284 283 283 284 284 284 283 282 282 282 282 282 281 282 281 280 284 286 286 286 286
295 294 291 291 289 291 291 291 291 290 289 289 287 287 285 285 284 284 283 284 284 284 283 282 282 282 283 284 282 282 281 281 279 279 279 280 279 281 282 282 281 283 286 286
292 294 293 291 290 289 289 289 287 286 286 285 287 287 286 284 282 282 284 284 284 283 280 280 280 280 281 280 279 279 278 278 278 276 276 276 277 277 277 277 277 278 279 281
291 291 290 288 288 288 287 287 285 284 285 285 285 285 284 284 283 283 284 284 281 278 278 275 277 277 279 277 276 276 275 275 274 275 275 275 275 275 275 275 275 275 276 277
288 286 287 286 286 287 287 288 286 284 283 283 283 282 282 281 281 281 282 280 277 276 277 275 274 276 276 276 275 274 274 274 273 274 273 272 272 271 273 272 273 272 272 273
293 291 290 289 287 285 284 284 283 283 283 283 279 278 277 278 277 278 279 277 275 275 275 275 274 274 275 274 274 273 272 270 270 269 270 269 269 270 269 270 269 269 270 271
291 290 289 288 286 284 283 283 283 283 281 279 279 277 276 275 277 275 274 271 270 273 274 274 274 272 272 273 271 270 270 265 265 267 267 265 265 266 267 266 266 267 268 268
289 288 286 284 284 283 282 283 282 280 280 278 276 275 274 273 273 272 272 272 273 274 275 273 272 271 271 271 267 268 266 261 264 264 263 263 262 263 264 263 264 264 265 266
285 284 283 282 282 282 282 280 278 278 278 275 275 273 273 273 271 269 272 272 273 273 274 271 270 269 270 267 268 259 260 258 258 260 258 260 260 261 261 261 261 262 263 264
284 283 282 282 280 279 279 278 277 276 274 272 270 271 271 272 270 271 268 272 273 267 271 270 269 262 265 262 265 257 260 259 258 255 256 257 257 259 258 259 259 260 261 262
283 283 282 280 279 279 278 276 275 274 272 271 271 272 273 273 272 269 269 272 272 266 269 264 261 259 257 254 254 252 253 252 254 253 252 251 253 255 256 257 258 258 259 259
282 281 280 279 278 278 277 276 276 274 272 273 269 268 273 268 267 271 270 265 261 258 259 257 257 257 255 252 251 251 251 249 250 250 251 251 249 251 252 254 256 256 257 257
281 280 279 279 278 277 277 277 276 275 274 275 275 274 273 272 267 266 262 262 263 261 258 254 256 255 251 250 250 249 249 248 248 249 246 247 250 250 251 253 254 255 255 256
280 278 277 277 277 276 276 275 274 273 271 266 267 265 265 266 266 264 261 259 260 259 256 251 251 250 250 252 252 250 249 250 248 249 247 247 248 250 250 253 252 253 254 254
277 276 276 275 275 274 273 272 271 270 267 265 266 266 265 263 261 261 255 254 254 252 252 250 250 251 251 250 251 253 251 249 248 249 245 245 246 246 248 251 252 252 252 253
Wind_Speed
3 4 4 4 5 6 7 6 7 9 8 8 4 7 7 7 0 6 5 6 6 5 5 5 4 5 6 7 10 12 13 14 14 12 9 9 8 7 6 6 5 4 2 4
3 2 3 4 7 7 5 3 7 4 6 5 3 3 8 6 8 8 7 6 3 5 7 7 7 8 9 10 11 11 12 14 11 9 7 6 8 7 6 4 3 2 3 5
5 2 3 6 8 8 6 6 6 6 8 5 4 5 5 7 8 7 7 8 9 9 7 6 6 7 11 12 11 13 12 9 8 8 10 11 10 8 6 5 2 4 5 6
4 3 2 9 2 4 5 3 4 4 6 4 6 5 6 4 8 8 6 7 6 5 5 5 2 2 4 4 4 6 7 9 10 11 12 10 10 7 6 3 1 5 6 7
6 5 5 5 5 8 7 4 2 8 8 6 5 5 7 7 8 7 6 6 5 6 6 7 8 6 9 9 10 11 11 11 12 14 12 8 4 5 2 2 5 4 4 6
4 5 9 9 4 3 6 2 4 5 8 8 2 4 3 4 6 8 9 7 7 8 7 11 10 10 13 11 12 12 11 12 11 10 7 7 4 1 2 5 3 4 5 5
3 3 8 8 4 5 6 10 8 7 7 7 5 4 6 7 9 7 7 8 8 10 10 9 9 12 14 13 13 11 11 10 8 7 5 2 1 3 4 5 4 5 6 6
4 3 7 7 5 9 9 3 7 6 7 6 9 9 9 8 7 8 8 8 8 10 10 9 8 12 12 12 7 7 7 6 6 3 2 1 4 4 4 4 5 6 5 6
10 9 4 4 3 3 6 9 6 8 6 12 12 7 9 7 8 7 7 7 7 9 11 9 9 9 10 5 6 5 5 4 3 1 2 3 4 5 4 5 4 5 5 6
5 2 3 2 2 4 3 5 5 4 9 9 13 11 11 9 8 7 6 6 6 9 9 7 6 7 6 5 5 5 5 4 4 3 5 4 4 4 4 4 4 6 5 7
1 1 3 4 3 6 9 9 13 12 8 12 15 11 11 10 8 7 6 6 6 6 6 6 6 7 6 6 6 5 4 4 5 3 5 5 5 5 5 6 7 7 7 7
8 11 5 4 6 7 11 9 10 15 13 10 13 13 12 9 7 7 7 5 6 6 6 6 7 8 7 7 6 5 5 4 4 4 4 5 5 8 9 15 16 17 19 14
6 7 6 12 8 7 11 11 11 12 13 15 10 12 11 9 5 7 6 7 7 8 7 7 7 8 7 6 6 7 6 7 5 6 6 6 7 7 11 10 13 16 17 20
15 16 8 1 6 10 14 14 14 13 11 11 10 9 10 9 8 8 8 8 8 10 10 6 8 10 8 9 9 8 7 7 5 5 6 7 7 9 9 11 14 13 9 14
7 7 12 17 15 14 14 15 16 13 10 9 8 10 10 10 10 9 8 9 10 10 8 8 9 10 9 9 9 8 7 6 7 5 5 6 7 7 8 9 10 11 13 14
14 16 16 17 15 13 13 12 15 11 10 9 10 10 10 10 10 9 9 7 8 8 8 7 9 8 8 9 9 7 6 8 6 5 6 7 7 8 9 8 10 11 11 12
19 11 15 14 14 12 11 10 11 10 9 10 10 8 9 9 9 8 10 10 8 8 8 8 8 8 8 10 9 6 6 7 9 7 7 7 8 8 9 9 9 9 10 12
10 13 12 17 16 14 11 11 11 10 10 10 9 8 8 7 8 8 8 8 7 8 8 8 8 9 9 11 9 7 6 7 7 6 6 7 8 8 8 8 9 10 11 12
13 16 14 14 13 13 11 11 9 10 9 9 9 8 6 6 9 8 7 7 6 6 7 6 8 7 9 10 7 5 4 5 6 6 6 8 7 7 8 9 10 10 11 11
15 14 16 15 12 14 12 9 10 10 8 9 8 8 9 6 7 7 6 9 7 3 6 6 6 6 7 7 6 5 4 4 6 6 6 7 6 7 7 9 9 9 10 10
14 13 14 13 12 10 10 9 10 9 8 6 9 7 8 6 5 4 4 4 5 4 5 5 5 3 4 4 4 3 3 3 3 5 5 6 7 7 7 8 8 9 9 10
11 12 12 12 11 11 8 9 10 9 9 8 7 7 8 8 6 6 3 4 3 4 3 2 2 3 3 4 3 2 3 4 3 3 3 5 6 6 7 8 8 9 9 10
10 10 11 10 11 11 9 9 8 8 7 6 6 5 5 4 3 3 3 3 2 3 3 2 2 3 3 2 2 2 3 3 3 2 3 4 4 4 6 7 7 8 9 9
10 9 10 10 10 10 10 8 8 7 6 6 5 3 6 4 3 3 3 3 3 3 2 0 1 3 3 1 2 2 2 2 3 2 3 5 4 5 4 6 7 8 8 9
10 10 10 10 9 7 9 9 8 7 6 6 5 5 5 2 3 2 2 1 2 2 1 2 3 4 2 1 1 1 2 2 3 1 3 3 5 5 5 5 5 8 8 8
10 8 8 10 8 6 5 5 4 3 4 3 2 2 3 3 3 3 2 2 1 2 1 1 1 2 2 2 2 2 2 3 2 2 3 3 4 5 6 7 5 7 8 8
10 10 8 8 7 7 5 4 3 2 3 2 3 2 3 3 2 2 2 2 1 1 1 2 1 2 2 3 3 2 3 3 2 1 3 3 4 4 5 6 6 7 7 8
Wind_Direction
246 172 180 202 228 176 201 208 160 247 200 257 287 257 273 205 181 47 111 159 177 194 215 241 218 201 176 160 162 168 175 189 192 183 177 173 174 162 135 138 179 165 168 255
149 38 7 225 223 215 229 229 268 243 259 244 348 56 55 78 85 78 73 83 125 218 234 242 223 186 170 171 178 178 190 196 180 171 161 132 115 111 113 116 95 159 250 256
226 57 14 325 221 224 222 212 188 193 224 169 93 66 65 78 84 86 60 40 30 9 343 298 244 183 192 184 173 184 188 172 155 130 115 117 109 101 99 100 67 351 293 281
186 60 326 242 272 222 190 290 225 118 121 117 128 113 95 115 126 113 96 62 38 10 352 337 278 104 74 94 100 92 85 90 99 105 103 107 111 109 110 77 295 254 271 277
139 187 287 297 180 159 168 239 318 142 133 141 141 79 34 19 44 57 55 40 27 8 1 10 29 69 91 82 88 89 96 101 109 115 111 102 86 112 109 247 252 260 265 278
141 168 208 226 228 155 115 305 206 153 157 159 124 76 241 53 55 55 46 35 27 21 31 44 36 64 76 77 85 88 95 100 97 97 106 109 114 167 240 248 264 274 283 283
127 204 287 245 202 130 128 229 163 170 167 149 147 189 126 89 67 63 58 48 43 50 51 46 59 78 78 82 81 92 93 90 89 82 84 129 170 235 259 259 265 284 287 285
88 81 272 187 122 162 209 76 137 152 155 113 115 103 97 89 81 69 64 60 56 67 55 37 53 83 87 86 95 95 99 104 95 113 165 212 247 251 258 269 276 281 283 283
173 208 237 230 213 183 160 146 173 144 154 134 128 123 118 114 98 84 77 71 65 74 67 50 53 67 75 62 68 68 69 62 86 189 269 300 300 284 288 279 255 267 265 269
99 231 213 126 69 75 98 120 117 106 133 140 128 127 122 115 103 92 77 79 78 82 79 70 58 62 70 56 47 53 44 17 350 331 309 300 288 272 267 266 265 261 260 268
58 345 82 18 65 115 92 88 88 70 86 123 123 119 121 114 107 102 96 85 83 86 82 74 61 51 36 27 29 27 7 344 325 305 300 295 273 256 255 245 233 258 257 256
212 196 157 162 130 122 110 108 103 111 97 92 114 119 120 113 116 117 110 102 85 81 77 64 62 49 30 24 33 26 5 347 326 320 317 311 302 303 257 256 260 258 259 248
174 101 84 102 78 82 104 105 99 101 107 112 106 116 115 116 103 102 95 90 78 76 71 66 63 48 21 20 35 35 24 7 357 352 339 328 323 313 313 306 272 275 265 265
116 109 73 49 136 107 107 105 99 91 90 101 107 97 103 97 88 78 68 81 82 81 70 56 54 39 19 22 25 24 15 5 360 343 339 334 328 321 318 314 314 313 289 266
43 68 109 115 108 110 112 115 105 102 103 92 95 108 107 101 91 89 84 93 98 85 65 55 48 34 29 22 19 14 3 353 348 334 327 322 322 321 319 316 310 306 310 308
100 102 110 113 121 122 119 117 114 115 108 104 99 93 95 101 102 98 95 100 93 70 56 49 48 21 18 18 13 11 359 343 340 333 337 340 334 334 329 330 327 323 315 304
110 113 119 120 130 129 127 125 120 117 113 108 110 113 111 107 100 96 90 84 75 73 66 54 33 18 20 18 13 7 2 357 346 359 351 344 343 333 332 323 322 326 324 331
111 127 132 135 135 126 116 114 116 121 124 124 114 108 101 101 108 102 93 90 79 74 60 48 32 21 25 19 14 12 20 1 352 348 349 346 336 336 329 337 329 328 327 329
113 115 116 120 122 117 118 119 118 117 114 117 111 104 103 102 109 101 94 80 70 66 56 39 30 27 24 25 22 12 23 1 349 350 345 342 340 338 339 339 332 330 330 333
101 104 107 106 109 119 121 117 114 105 102 105 105 96 90 88 101 102 93 80 66 47 77 49 35 29 23 23 28 14 359 7 2 354 347 341 337 332 336 331 332 332 332 334
108 106 104 104 102 103 104 108 109 106 110 94 105 101 101 99 97 116 96 85 58 36 87 52 40 14 20 358 18 13 3 351 1 347 330 336 331 333 334 327 331 331 330 332
103 103 108 109 112 105 94 99 100 101 101 97 98 110 109 107 100 89 77 91 75 45 77 56 34 23 16 357 22 16 7 357 342 327 333 338 333 330 329 328 333 330 331 332
100 107 109 113 116 111 103 99 98 111 110 112 121 119 111 112 113 108 115 82 86 93 87 67 22 33 27 33 25 30 10 352 327 344 326 313 305 307 320 321 326 324 328 330
109 111 108 105 107 108 114 118 113 100 98 103 109 120 125 107 44 50 84 111 107 98 102 281 46 38 50 40 27 17 331 335 330 328 313 311 298 303 301 310 323 322 320 322
109 108 109 109 109 106 108 116 110 110 101 96 93 91 95 72 136 167 103 86 109 99 96 353 42 34 35 24 309 287 301 311 293 310 322 309 314 309 303 302 312 319 316 315
104 90 87 81 81 84 79 88 104 103 108 87 55 52 67 69 85 89 67 46 64 92 140 296 335 13 1 297 272 256 276 304 315 314 319 308 308 309 312 309 309 318 314 310
79 81 82 74 64 62 56 69 96 108 97 107 121 156 130 110 98 97 65 22 350 334 268 306 311 329 319 309 302 267 261 275 263 308 314 304 304 298 303 303 305 308 308 307